QPF
0.02 0.02 0.02 0.03 0.04 0.05 0.06 0.06 0.06 0.06 0.07 0.06 0.06 0.05 0.04 0.04 0.06 0.08 0.09 0.08 0.08 0.08 0.07 0.06 0.05 0.04 0.05 0.05 0.05 0.04 0.04 0.04 0.04 0.03 0.03 0.02 0.02 0.02 0.02 0.02 0.01 0.01 0.02
0.02 0.02 0.02 0.02 0.03 0.03 0.03 0.04 0.04 0.04 0.04 0.05 0.05 0.04 0.04 0.05 0.04 0.05 0.06 0.06 0.06 0.06 0.05 0.05 0.05 0.04 0.04 0.04 0.04 0.03 0.03 0.03 0.03 0.03 0.03 0.03 0.02 0.02 0.02 0.02 0.01 0.01 0.02
0.02 0.02 0.02 0.02 0.02 0.02 0.03 0.03 0.03 0.03 0.03 0.03 0.03 0.04 0.04 0.05 0.05 0.05 0.07 0.06 0.06 0.05 0.04 0.04 0.03 0.03 0.03 0.03 0.03 0.02 0.02 0.02 0.02 0.02 0.02 0.02 0.02 0.02 0.01 0.01 0.01 0.01 0.01
0.02 0.02 0.02 0.02 0.02 0.02 0.02 0.03 0.03 0.03 0.02 0.02 0.02 0.03 0.04 0.05 0.06 0.05 0.06 0.06 0.05 0.04 0.03 0.03 0.02 0.02 0.02 0.02 0.02 0.02 0.02 0.02 0.02 0.02 0.01 0.01 0.01 0.01 0.01 0.01 0.01 0.01 0.00
0.02 0.02 0.02 0.02 0.02 0.02 0.02 0.02 0.02 0.02 0.02 0.02 0.02 0.03 0.04 0.04 0.04 0.04 0.03 0.04 0.03 0.03 0.02 0.02 0.02 0.02 0.02 0.01 0.01 0.01 0.02 0.02 0.01 0.01 0.01 0.01 0.01 0.01 0.01 0.01 0.01 0.01 0.01
0.01 0.02 0.02 0.02 0.02 0.02 0.02 0.02 0.02 0.02 0.02 0.02 0.02 0.03 0.03 0.03 0.04 0.04 0.02 0.02 0.03 0.03 0.03 0.03 0.03 0.03 0.02 0.02 0.02 0.02 0.01 0.01 0.01 0.01 0.01 0.00 0.00 0.00 0.01 0.01 0.01 0.01 0.01
0.01 0.01 0.02 0.02 0.02 0.02 0.02 0.02 0.02 0.02 0.02 0.02 0.02 0.02 0.03 0.03 0.04 0.04 0.03 0.02 0.02 0.03 0.03 0.03 0.03 0.03 0.03 0.02 0.02 0.02 0.02 0.01 0.01 0.01 0.01 0.00 0.00 0.01 0.01 0.01 0.01 0.01 0.01
0.01 0.01 0.01 0.01 0.01 0.02 0.03 0.03 0.03 0.02 0.02 0.02 0.02 0.02 0.02 0.03 0.03 0.03 0.03 0.03 0.02 0.02 0.03 0.03 0.04 0.04 0.03 0.03 0.03 0.02 0.02 0.01 0.01 0.01 0.01 0.01 0.01 0.01 0.01 0.02 0.02 0.02 0.01
0.01 0.01 0.01 0.01 0.01 0.02 0.03 0.03 0.03 0.02 0.02 0.02 0.02 0.02 0.02 0.03 0.03 0.03 0.02 0.02 0.02 0.03 0.03 0.03 0.04 0.05 0.05 0.04 0.04 0.03 0.03 0.02 0.02 0.02 0.02 0.01 0.01 0.01 0.01 0.01 0.01 0.01 0.01
0.01 0.01 0.01 0.01 0.02 0.02 0.03 0.03 0.03 0.03 0.02 0.02 0.02 0.01 0.01 0.02 0.03 0.03 0.02 0.02 0.02 0.02 0.03 0.03 0.03 0.04 0.05 0.05 0.04 0.03 0.03 0.02 0.02 0.03 0.03 0.02 0.02 0.02 0.02 0.01 0.01 0.02 0.02
0.01 0.01 0.01 0.01 0.02 0.02 0.03 0.03 0.03 0.03 0.02 0.02 0.02 0.01 0.01 0.01 0.02 0.02 0.02 0.02 0.02 0.03 0.03 0.04 0.04 0.04 0.05 0.05 0.05 0.04 0.03 0.03 0.03 0.03 0.03 0.03 0.02 0.02 0.02 0.02 0.02 0.02 0.02
0.01 0.01 0.01 0.01 0.01 0.01 0.02 0.02 0.02 0.02 0.02 0.03 0.03 0.02 0.02 0.02 0.02 0.02 0.02 0.03 0.03 0.04 0.04 0.04 0.04 0.05 0.05 0.06 0.06 0.06 0.06 0.05 0.04 0.04 0.04 0.04 0.04 0.03 0.03 0.03 0.03 0.02 0.02
0.01 0.01 0.01 0.01 0.01 0.01 0.02 0.02 0.02 0.02 0.02 0.03 0.03 0.03 0.03 0.03 0.02 0.02 0.02 0.02 0.03 0.03 0.04 0.04 0.04 0.05 0.04 0.04 0.05 0.06 0.06 0.06 0.06 0.05 0.05 0.04 0.04 0.03 0.03 0.03 0.02 0.02 0.02
0.01 0.01 0.01 0.01 0.01 0.01 0.02 0.02 0.03 0.03 0.03 0.03 0.04 0.04 0.04 0.04 0.03 0.02 0.02 0.02 0.03 0.03 0.04 0.04 0.04 0.04 0.04 0.04 0.05 0.05 0.05 0.05 0.06 0.06 0.05 0.04 0.04 0.03 0.02 0.02 0.02 0.02 0.02
0.02 0.02 0.02 0.02 0.02 0.02 0.02 0.03 0.03 0.04 0.04 0.04 0.04 0.04 0.04 0.04 0.03 0.03 0.03 0.03 0.03 0.03 0.03 0.03 0.04 0.04 0.04 0.04 0.04 0.04 0.04 0.04 0.05 0.05 0.05 0.04 0.03 0.03 0.03 0.02 0.02 0.02 0.02
0.03 0.03 0.03 0.03 0.03 0.03 0.03 0.04 0.04 0.04 0.04 0.04 0.04 0.04 0.04 0.04 0.04 0.03 0.04 0.03 0.04 0.04 0.04 0.04 0.04 0.04 0.04 0.04 0.03 0.03 0.04 0.04 0.04 0.04 0.04 0.04 0.04 0.03 0.03 0.02 0.02 0.02 0.02
0.04 0.04 0.04 0.05 0.04 0.04 0.04 0.03 0.04 0.04 0.04 0.04 0.03 0.03 0.04 0.04 0.03 0.03 0.04 0.04 0.04 0.04 0.04 0.04 0.04 0.04 0.03 0.03 0.03 0.03 0.03 0.03 0.03 0.03 0.03 0.03 0.03 0.02 0.02 0.02 0.01 0.01 0.01
0.05 0.05 0.05 0.04 0.04 0.04 0.04 0.03 0.03 0.03 0.04 0.04 0.04 0.04 0.04 0.04 0.03 0.04 0.04 0.03 0.04 0.04 0.04 0.04 0.04 0.03 0.03 0.03 0.03 0.03 0.03 0.03 0.03 0.03 0.03 0.03 0.02 0.02 0.02 0.02 0.01 0.01 0.01
0.05 0.05 0.04 0.04 0.03 0.03 0.03 0.03 0.03 0.02 0.03 0.03 0.03 0.04 0.04 0.04 0.04 0.04 0.03 0.03 0.03 0.03 0.03 0.04 0.04 0.04 0.04 0.04 0.04 0.03 0.03 0.03 0.03 0.02 0.02 0.02 0.02 0.02 0.02 0.01 0.01 0.01 0.02
0.05 0.04 0.03 0.03 0.03 0.02 0.02 0.02 0.02 0.02 0.02 0.02 0.02 0.03 0.03 0.04 0.04 0.04 0.03 0.03 0.03 0.03 0.03 0.03 0.03 0.03 0.03 0.03 0.03 0.03 0.03 0.02 0.02 0.02 0.02 0.02 0.02 0.02 0.02 0.02 0.02 0.02 0.02
0.04 0.03 0.03 0.02 0.02 0.02 0.01 0.01 0.01 0.01 0.01 0.02 0.02 0.02 0.03 0.03 0.03 0.03 0.03 0.03 0.03 0.03 0.03 0.02 0.02 0.02 0.02 0.02 0.02 0.02 0.02 0.02 0.01 0.02 0.02 0.02 0.02 0.02 0.02 0.02 0.02 0.02 0.02
0.02 0.02 0.02 0.02 0.01 0.01 0.01 0.01 0.01 0.01 0.01 0.02 0.02 0.02 0.02 0.02 0.02 0.03 0.03 0.03 0.03 0.03 0.03 0.02 0.02 0.02 0.02 0.02 0.01 0.01 0.01 0.01 0.01 0.01 0.01 0.01 0.02 0.02 0.02 0.02 0.02 0.02 0.02
0.01 0.01 0.01 0.01 0.01 0.01 0.01 0.01 0.01 0.02 0.02 0.02 0.02 0.02 0.02 0.02 0.02 0.02 0.02 0.02 0.03 0.03 0.02 0.02 0.02 0.02 0.01 0.01 0.01 0.01 0.01 0.01 0.01 0.01 0.01 0.01 0.01 0.02 0.02 0.02 0.02 0.02 0.02
0.01 0.01 0.01 0.01 0.01 0.01 0.01 0.01 0.01 0.01 0.01 0.01 0.01 0.01 0.01 0.01 0.01 0.01 0.01 0.01 0.02 0.02 0.02 0.01 0.01 0.01 0.01 0.01 0.01 0.01 0.01 0.01 0.01 0.01 0.01 0.02 0.01 0.01 0.01 0.02 0.02 0.02 0.02
0.01 0.01 0.01 0.01 0.01 0.01 0.01 0.01 0.01 0.01 0.01 0.01 0.01 0.01 0.01 0.01 0.01 0.01 0.01 0.01 0.01 0.01 0.01 0.01 0.01 0.01 0.00 0.00 0.00 0.00 0.01 0.01 0.01 0.01 0.02 0.02 0.02 0.01 0.02 0.02 0.02 0.02 0.02
0.01 0.01 0.01 0.01 0.01 0.01 0.02 0.02 0.02 0.02 0.02 0.01 0.01 0.01 0.01 0.01 0.01 0.01 0.01 0.01 0.01 0.01 0.01 0.01 0.00 0.00 0.00 0.00 0.00 0.00 0.01 0.01 0.01 0.01 0.02 0.02 0.02 0.02 0.02 0.02 0.02 0.02 0.02
MSLP
1018.75 1018.04 1017.40 1016.80 1016.23 1015.65 1015.02 1014.31 1013.49 1012.57 1011.55 1010.50 1009.47 1008.53 1007.74 1007.14 1006.76 1006.61 1006.66 1006.89 1007.24 1007.68 1008.17 1008.68 1009.22 1009.77 1010.37 1011.01 1011.72 1012.49 1013.31 1014.15 1015.00 1015.83 1016.60 1017.29 1017.91 1018.45 1018.92 1019.36 1019.78 1020.20 1020.64
1018.83 1018.12 1017.48 1016.88 1016.30 1015.70 1015.04 1014.28 1013.39 1012.38 1011.29 1010.16 1009.06 1008.07 1007.25 1006.64 1006.27 1006.13 1006.21 1006.47 1006.84 1007.29 1007.78 1008.28 1008.79 1009.32 1009.88 1010.49 1011.17 1011.91 1012.71 1013.56 1014.42 1015.27 1016.07 1016.81 1017.49 1018.09 1018.65 1019.17 1019.67 1020.16 1020.67
1018.96 1018.25 1017.60 1016.99 1016.40 1015.78 1015.08 1014.27 1013.33 1012.27 1011.11 1009.93 1008.78 1007.76 1006.92 1006.30 1005.94 1005.83 1005.93 1006.20 1006.59 1007.05 1007.54 1008.03 1008.52 1009.02 1009.54 1010.11 1010.75 1011.45 1012.22 1013.04 1013.88 1014.72 1015.53 1016.30 1017.01 1017.68 1018.30 1018.90 1019.50 1020.08 1020.67
1019.14 1018.42 1017.76 1017.15 1016.54 1015.90 1015.17 1014.32 1013.33 1012.22 1011.03 1009.80 1008.63 1007.59 1006.74 1006.12 1005.76 1005.64 1005.75 1006.03 1006.42 1006.88 1007.37 1007.85 1008.33 1008.81 1009.31 1009.85 1010.45 1011.11 1011.84 1012.61 1013.41 1014.21 1015.00 1015.77 1016.51 1017.21 1017.90 1018.58 1019.26 1019.93 1020.60
1019.34 1018.62 1017.96 1017.33 1016.71 1016.04 1015.28 1014.39 1013.38 1012.24 1011.02 1009.78 1008.59 1007.54 1006.67 1006.04 1005.66 1005.54 1005.62 1005.89 1006.27 1006.72 1007.20 1007.68 1008.16 1008.64 1009.14 1009.67 1010.24 1010.87 1011.55 1012.27 1013.02 1013.78 1014.53 1015.28 1016.02 1016.75 1017.48 1018.22 1018.97 1019.72 1020.46
1019.53 1018.81 1018.15 1017.51 1016.87 1016.17 1015.39 1014.48 1013.44 1012.29 1011.07 1009.82 1008.63 1007.57 1006.68 1006.03 1005.62 1005.46 1005.51 1005.74 1006.09 1006.52 1006.99 1007.48 1007.98 1008.48 1008.99 1009.53 1010.10 1010.72 1011.37 1012.05 1012.75 1013.46 1014.17 1014.88 1015.61 1016.34 1017.10 1017.88 1018.68 1019.49 1020.30
1019.64 1018.94 1018.27 1017.63 1016.97 1016.26 1015.46 1014.54 1013.50 1012.35 1011.13 1009.90 1008.71 1007.64 1006.75 1006.06 1005.61 1005.40 1005.39 1005.56 1005.88 1006.28 1006.75 1007.25 1007.77 1008.31 1008.86 1009.43 1010.03 1010.65 1011.29 1011.95 1012.62 1013.28 1013.96 1014.64 1015.34 1016.07 1016.83 1017.64 1018.47 1019.32 1020.17
1019.63 1018.95 1018.30 1017.66 1016.99 1016.27 1015.46 1014.55 1013.51 1012.38 1011.18 1009.97 1008.80 1007.74 1006.83 1006.12 1005.62 1005.35 1005.28 1005.40 1005.66 1006.04 1006.50 1007.02 1007.57 1008.16 1008.77 1009.40 1010.05 1010.70 1011.36 1012.01 1012.66 1013.31 1013.95 1014.61 1015.29 1016.00 1016.76 1017.56 1018.41 1019.28 1020.14
1019.49 1018.84 1018.21 1017.57 1016.91 1016.19 1015.38 1014.47 1013.46 1012.36 1011.19 1010.02 1008.88 1007.83 1006.93 1006.20 1005.66 1005.34 1005.21 1005.28 1005.50 1005.85 1006.31 1006.85 1007.45 1008.09 1008.77 1009.47 1010.18 1010.89 1011.58 1012.26 1012.91 1013.55 1014.18 1014.82 1015.48 1016.18 1016.92 1017.71 1018.55 1019.41 1020.26
1019.24 1018.62 1018.01 1017.38 1016.72 1016.00 1015.20 1014.31 1013.33 1012.27 1011.16 1010.03 1008.94 1007.93 1007.04 1006.31 1005.76 1005.40 1005.24 1005.26 1005.45 1005.78 1006.24 1006.81 1007.45 1008.16 1008.91 1009.68 1010.46 1011.22 1011.97 1012.68 1013.36 1014.01 1014.64 1015.27 1015.92 1016.60 1017.32 1018.09 1018.89 1019.72 1020.55
1018.90 1018.31 1017.71 1017.09 1016.44 1015.72 1014.94 1014.07 1013.13 1012.12 1011.07 1010.01 1008.99 1008.03 1007.18 1006.48 1005.93 1005.57 1005.39 1005.39 1005.56 1005.89 1006.36 1006.95 1007.63 1008.39 1009.20 1010.04 1010.89 1011.71 1012.51 1013.26 1013.97 1014.64 1015.28 1015.91 1016.55 1017.22 1017.92 1018.65 1019.41 1020.20 1020.97
1018.50 1017.93 1017.34 1016.73 1016.07 1015.37 1014.59 1013.76 1012.86 1011.91 1010.93 1009.95 1009.01 1008.13 1007.35 1006.69 1006.18 1005.84 1005.67 1005.67 1005.85 1006.19 1006.67 1007.28 1008.00 1008.80 1009.66 1010.55 1011.45 1012.32 1013.16 1013.96 1014.70 1015.39 1016.05 1016.69 1017.32 1017.97 1018.63 1019.33 1020.04 1020.76 1021.48
1018.05 1017.48 1016.90 1016.28 1015.63 1014.92 1014.17 1013.36 1012.51 1011.63 1010.73 1009.85 1009.00 1008.22 1007.52 1006.94 1006.50 1006.21 1006.07 1006.11 1006.31 1006.66 1007.16 1007.79 1008.53 1009.36 1010.25 1011.17 1012.10 1013.00 1013.88 1014.70 1015.46 1016.18 1016.85 1017.49 1018.12 1018.75 1019.38 1020.03 1020.69 1021.35 1021.99
1017.53 1016.96 1016.36 1015.74 1015.08 1014.38 1013.64 1012.87 1012.07 1011.27 1010.46 1009.67 1008.93 1008.26 1007.68 1007.20 1006.85 1006.63 1006.56 1006.64 1006.88 1007.26 1007.78 1008.43 1009.18 1010.01 1010.91 1011.84 1012.77 1013.69 1014.58 1015.41 1016.19 1016.92 1017.60 1018.24 1018.86 1019.47 1020.08 1020.69 1021.29 1021.88 1022.46
1016.92 1016.32 1015.70 1015.06 1014.39 1013.70 1012.99 1012.25 1011.52 1010.79 1010.08 1009.40 1008.78 1008.24 1007.78 1007.42 1007.18 1007.06 1007.07 1007.22 1007.51 1007.93 1008.47 1009.13 1009.88 1010.70 1011.59 1012.50 1013.42 1014.33 1015.21 1016.04 1016.82 1017.55 1018.24 1018.88 1019.49 1020.08 1020.66 1021.23 1021.79 1022.33 1022.84
1016.15 1015.51 1014.86 1014.20 1013.53 1012.85 1012.17 1011.48 1010.81 1010.17 1009.56 1009.00 1008.52 1008.11 1007.79 1007.57 1007.45 1007.45 1007.56 1007.80 1008.14 1008.60 1009.17 1009.83 1010.57 1011.37 1012.23 1013.11 1014.00 1014.88 1015.74 1016.56 1017.33 1018.06 1018.74 1019.38 1019.98 1020.56 1021.12 1021.65 1022.17 1022.67 1023.13
1015.22 1014.53 1013.85 1013.17 1012.50 1011.83 1011.18 1010.55 1009.96 1009.41 1008.91 1008.48 1008.13 1007.87 1007.70 1007.63 1007.65 1007.78 1008.00 1008.32 1008.74 1009.24 1009.83 1010.49 1011.21 1011.99 1012.81 1013.65 1014.50 1015.34 1016.17 1016.96 1017.72 1018.44 1019.12 1019.75 1020.35 1020.92 1021.46 1021.98 1022.47 1022.93 1023.36
1014.13 1013.40 1012.68 1011.99 1011.32 1010.68 1010.07 1009.50 1008.99 1008.54 1008.16 1007.87 1007.66 1007.55 1007.54 1007.62 1007.79 1008.04 1008.38 1008.80 1009.29 1009.84 1010.45 1011.11 1011.81 1012.56 1013.33 1014.13 1014.93 1015.73 1016.52 1017.29 1018.03 1018.74 1019.41 1020.05 1020.65 1021.21 1021.74 1022.24 1022.71 1023.15 1023.56
1012.96 1012.18 1011.44 1010.73 1010.07 1009.46 1008.90 1008.41 1007.98 1007.64 1007.38 1007.22 1007.17 1007.21 1007.35 1007.59 1007.90 1008.29 1008.75 1009.26 1009.82 1010.41 1011.04 1011.70 1012.39 1013.10 1013.83 1014.57 1015.33 1016.08 1016.84 1017.58 1018.30 1019.00 1019.67 1020.30 1020.90 1021.46 1021.99 1022.47 1022.93 1023.35 1023.74
1011.81 1010.99 1010.23 1009.53 1008.88 1008.31 1007.80 1007.38 1007.05 1006.81 1006.68 1006.65 1006.74 1006.93 1007.23 1007.61 1008.07 1008.58 1009.15 1009.74 1010.37 1011.00 1011.65 1012.31 1012.97 1013.64 1014.33 1015.02 1015.73 1016.44 1017.16 1017.88 1018.58 1019.27 1019.93 1020.56 1021.15 1021.71 1022.23 1022.71 1023.15 1023.55 1023.92
1010.81 1009.98 1009.21 1008.51 1007.89 1007.36 1006.91 1006.55 1006.31 1006.18 1006.16 1006.26 1006.49 1006.82 1007.25 1007.77 1008.35 1008.98 1009.64 1010.31 1010.98 1011.65 1012.31 1012.95 1013.59 1014.22 1014.86 1015.51 1016.17 1016.84 1017.52 1018.21 1018.89 1019.56 1020.21 1020.83 1021.42 1021.97 1022.47 1022.94 1023.36 1023.74 1024.09
1010.11 1009.27 1008.51 1007.82 1007.23 1006.73 1006.34 1006.06 1005.89 1005.85 1005.94 1006.16 1006.50 1006.96 1007.51 1008.13 1008.82 1009.54 1010.27 1010.99 1011.70 1012.38 1013.04 1013.66 1014.27 1014.86 1015.45 1016.05 1016.66 1017.29 1017.93 1018.59 1019.24 1019.89 1020.53 1021.13 1021.70 1022.23 1022.72 1023.16 1023.55 1023.91 1024.22
1009.79 1008.97 1008.23 1007.57 1007.01 1006.55 1006.21 1005.99 1005.90 1005.94 1006.11 1006.42 1006.86 1007.40 1008.04 1008.76 1009.51 1010.29 1011.06 1011.81 1012.53 1013.21 1013.84 1014.44 1015.01 1015.55 1016.10 1016.64 1017.21 1017.79 1018.39 1019.01 1019.63 1020.25 1020.86 1021.44 1021.98 1022.49 1022.94 1023.35 1023.71 1024.03 1024.31
1009.88 1009.10 1008.39 1007.77 1007.25 1006.84 1006.55 1006.38 1006.34 1006.45 1006.69 1007.06 1007.57 1008.17 1008.87 1009.62 1010.42 1011.22 1012.00 1012.76 1013.46 1014.11 1014.71 1015.27 1015.79 1016.29 1016.78 1017.28 1017.79 1018.33 1018.89 1019.46 1020.05 1020.63 1021.20 1021.75 1022.26 1022.73 1023.15 1023.52 1023.84 1024.12 1024.36
1010.34 1009.62 1008.96 1008.39 1007.92 1007.56 1007.31 1007.19 1007.21 1007.35 1007.64 1008.05 1008.59 1009.23 1009.94 1010.70 1011.49 1012.28 1013.05 1013.78 1014.45 1015.06 1015.61 1016.12 1016.59 1017.04 1017.48 1017.93 1018.39 1018.89 1019.40 1019.93 1020.48 1021.03 1021.56 1022.06 1022.53 1022.96 1023.34 1023.67 1023.95 1024.20 1024.40
1011.08 1010.43 1009.85 1009.35 1008.94 1008.63 1008.43 1008.35 1008.40 1008.58 1008.89 1009.31 1009.85 1010.48 1011.18 1011.92 1012.68 1013.43 1014.15 1014.83 1015.44 1016.00 1016.50 1016.96 1017.38 1017.78 1018.17 1018.58 1019.00 1019.45 1019.93 1020.42 1020.92 1021.42 1021.91 1022.38 1022.81 1023.19 1023.54 1023.83 1024.08 1024.30 1024.48
Thickness
5559 5559 5560 5561 5563 5563 5563 5563 5563 5564 5565 5565 5565 5565 5565 5565 5564 5564 5563 5561 5560 5559 5558 5557 5556 5555 5553 5552 5551 5550 5549 5548 5543 5541 5540 5539 5537 5535 5533 5532 5531 5529 5528
5549 5549 5550 5552 5553 5554 5554 5555 5555 5555 5556 5556 5557 5556 5557 5556 5556 5555 5554 5553 5552 5551 5550 5548 5547 5546 5544 5543 5542 5541 5540 5539 5536 5532 5530 5529 5528 5526 5524 5522 5521 5519 5517
5537 5539 5540 5542 5543 5544 5545 5546 5546 5546 5546 5547 5548 5548 5548 5548 5547 5546 5545 5544 5543 5542 5541 5540 5539 5537 5535 5534 5533 5532 5530 5530 5527 5524 5521 5519 5517 5516 5514 5512 5510 5509 5507
5526 5528 5529 5531 5533 5534 5535 5535 5536 5536 5537 5537 5538 5539 5539 5539 5538 5537 5535 5534 5533 5532 5532 5531 5530 5529 5528 5526 5524 5522 5520 5518 5517 5514 5511 5509 5507 5506 5504 5502 5500 5498 5496
5513 5515 5518 5520 5522 5523 5524 5525 5525 5526 5527 5527 5527 5528 5528 5528 5528 5527 5526 5525 5523 5522 5521 5521 5520 5520 5519 5517 5516 5513 5511 5508 5506 5504 5501 5499 5497 5495 5494 5492 5489 5487 5485
5500 5503 5506 5509 5510 5512 5513 5514 5515 5515 5516 5516 5516 5517 5517 5518 5518 5517 5516 5514 5513 5512 5511 5510 5510 5509 5508 5507 5506 5504 5503 5500 5497 5495 5492 5490 5489 5487 5484 5481 5477 5474 5473
5488 5491 5494 5497 5498 5500 5501 5502 5503 5504 5504 5505 5505 5506 5506 5506 5507 5506 5505 5505 5503 5502 5501 5500 5499 5499 5497 5496 5495 5494 5492 5490 5490 5488 5484 5483 5481 5479 5475 5471 5467 5463 5461
5476 5478 5481 5484 5486 5488 5489 5490 5491 5492 5492 5493 5494 5494 5494 5494 5495 5495 5494 5493 5492 5492 5491 5490 5489 5488 5487 5486 5484 5482 5481 5480 5480 5479 5477 5474 5472 5469 5465 5462 5458 5453 5450
5463 5466 5469 5472 5473 5475 5476 5477 5478 5479 5480 5481 5481 5481 5482 5482 5482 5482 5482 5481 5481 5481 5480 5480 5479 5478 5478 5476 5473 5471 5470 5469 5468 5467 5466 5463 5461 5458 5454 5449 5445 5441 5438
5451 5454 5456 5459 5461 5463 5463 5464 5466 5467 5468 5469 5469 5469 5469 5469 5470 5470 5470 5470 5470 5469 5468 5468 5468 5468 5466 5465 5463 5461 5460 5458 5457 5455 5453 5452 5449 5446 5442 5438 5434 5429 5426
5438 5441 5444 5446 5448 5450 5451 5453 5454 5455 5456 5456 5456 5456 5457 5457 5458 5459 5460 5460 5459 5458 5457 5457 5457 5456 5455 5454 5453 5451 5450 5448 5446 5443 5441 5439 5436 5433 5430 5426 5422 5419 5415
5426 5429 5431 5433 5436 5438 5439 5439 5441 5442 5443 5443 5443 5443 5444 5445 5446 5447 5448 5448 5448 5447 5446 5446 5446 5445 5444 5443 5442 5441 5439 5436 5433 5431 5429 5426 5424 5421 5418 5415 5411 5407 5404
5413 5415 5417 5420 5422 5424 5425 5426 5427 5429 5430 5431 5431 5431 5432 5433 5434 5436 5436 5436 5437 5436 5436 5436 5436 5434 5432 5431 5430 5429 5426 5424 5422 5419 5417 5414 5411 5408 5405 5403 5399 5396 5393
5400 5402 5404 5406 5408 5410 5412 5413 5415 5416 5417 5418 5419 5420 5420 5421 5422 5424 5424 5425 5425 5425 5424 5424 5424 5422 5421 5419 5417 5415 5414 5412 5409 5407 5404 5401 5398 5395 5392 5390 5387 5384 5382
5388 5389 5391 5393 5395 5397 5398 5399 5401 5403 5405 5407 5408 5409 5410 5410 5411 5413 5414 5414 5415 5414 5413 5411 5410 5408 5407 5405 5404 5402 5400 5398 5396 5394 5391 5388 5386 5383 5380 5377 5375 5372 5370
5375 5377 5379 5381 5382 5383 5385 5386 5388 5390 5392 5394 5396 5397 5399 5400 5400 5402 5403 5404 5404 5404 5402 5400 5398 5397 5395 5393 5391 5389 5387 5386 5383 5381 5378 5376 5374 5371 5369 5365 5363 5360 5358
5362 5364 5367 5368 5369 5371 5372 5374 5375 5377 5379 5381 5383 5386 5387 5388 5389 5390 5390 5391 5392 5392 5390 5388 5387 5385 5383 5381 5379 5377 5375 5373 5371 5369 5366 5364 5362 5359 5357 5354 5351 5348 5347
5350 5352 5354 5355 5357 5358 5360 5362 5364 5365 5366 5368 5370 5373 5375 5376 5377 5377 5378 5378 5377 5377 5377 5376 5374 5373 5372 5370 5367 5365 5363 5361 5358 5356 5354 5351 5349 5347 5344 5342 5340 5337 5335
5337 5339 5341 5343 5344 5346 5348 5350 5351 5353 5354 5356 5357 5359 5361 5363 5364 5364 5365 5364 5364 5363 5363 5362 5362 5361 5359 5357 5355 5353 5351 5349 5346 5344 5342 5339 5337 5334 5332 5330 5328 5327 5324
5325 5327 5329 5331 5332 5334 5336 5337 5338 5340 5341 5342 5344 5345 5347 5348 5349 5349 5350 5350 5350 5350 5350 5349 5349 5348 5346 5345 5343 5341 5339 5337 5334 5332 5330 5327 5325 5323 5322 5320 5318 5316 5314
5313 5315 5318 5319 5320 5322 5323 5325 5326 5328 5329 5330 5331 5333 5335 5335 5336 5336 5336 5337 5337 5337 5337 5337 5336 5335 5334 5332 5330 5329 5327 5325 5323 5321 5319 5317 5315 5313 5312 5310 5309 5307 5305
5302 5303 5304 5306 5308 5309 5311 5313 5314 5315 5316 5318 5319 5320 5322 5322 5323 5323 5324 5324 5324 5324 5324 5324 5323 5322 5321 5319 5318 5317 5315 5313 5312 5310 5308 5306 5305 5304 5303 5301 5299 5297 5296
5290 5291 5293 5294 5296 5298 5299 5301 5302 5303 5304 5305 5307 5308 5309 5309 5310 5311 5311 5311 5311 5311 5311 5311 5310 5309 5308 5307 5306 5305 5304 5302 5301 5299 5298 5297 5296 5295 5294 5292 5291 5289 5287
5279 5280 5281 5283 5284 5285 5287 5288 5290 5291 5292 5293 5295 5296 5296 5297 5297 5298 5299 5299 5299 5299 5299 5299 5298 5297 5296 5296 5295 5294 5293 5292 5291 5290 5289 5289 5287 5286 5285 5284 5282 5281 5280
5268 5269 5271 5272 5273 5274 5275 5277 5278 5280 5281 5282 5283 5284 5285 5285 5286 5286 5287 5287 5287 5288 5287 5287 5286 5286 5285 5285 5284 5284 5283 5282 5282 5281 5281 5280 5279 5278 5277 5276 5275 5274 5273
5258 5259 5260 5261 5262 5263 5264 5265 5267 5268 5269 5271 5272 5273 5273 5274 5275 5275 5276 5276 5277 5277 5277 5276 5276 5275 5275 5275 5275 5274 5274 5274 5274 5274 5273 5273 5272 5271 5269 5268 5268 5267 5266